DECAYED

STARLINK-32838, 62827 (Decayed)

Orbit data source: Space-Track

STARLINK-32838, 62827 was a payload satellite owned by SpaceX/Seattle (US) in LEO that was launched on Fri, 24 Jan 2025 UTC via an FALCON 9 launch vehicle from the Air Force Western Test Range (AFWTR). Payload-class satellites include a variety of spacecraft equipped with specific instruments for various scientific and technological missions. These include communications satellites like Starlink; space stations such as the ISS; scientific satellites like the Hubble; Earth observation satellites from companies like Planet Labs, Umbra, and HawkEye 360; GPS; miniature CubeSats for education and research; and military/defense satellites.

Not visible in the next 10 days
Identifier
62827, 2025-018X
Orbit
Decayed
Country
Flag of USUS
Related business
Manufacturer
SpaceX/Seattle
Mission
Decayed Commercial Communications
Bus & Motor
STARLINK V2M, Unknown motor
Mass
730 kg wet, ~700 kg dry
Launch date (UTC)
2025-01-24 (1 year ago)
Launch vehicle
FALCON 9
Launch site
Air Force Western Test Range (AFWTR)
Object type
Payload
Rocket body
Debris
Shape & HBR
Box + 2 Pan, 17.7 m
Radar Cross Section
33.884 m², Large (>1 m²)

Expand to show TLE details & history
Last TLE update: 5 months ago

TLE from 5 months ago
0 STARLINK-32838
1 62827U 25018X   26004.90952244  .05921788  12668-0  66206-2 0  9993
2 62827  53.1527 201.3101 0000925 291.8329  68.2610 16.15283336 54020
Epoch: 2026-01-04T21:49Z
TLE epoch observation values (Epoch: 2026-01-04T21:49:42.738Z)
Latitude
-0.00004°
Longitude
129.36773°
Altitude
233.095 km
Speed
7.768 km/s
True Right ascension
13h 25m 14s
True Declination
0° 00' 00"
Sunlit
Object was in daylight at epoch
Visualization orbit readout
Latitude
Unknown
Longitude
Unknown
Altitude
Unknown
Speed
Unknown
Apparent Right ascension
Unknown
Apparent Declination
Unknown
Sunlit
N/A
Visualization observer readout
Local Sidereal Time
21:22:42
Azimuth
Unknown
Elevation
Unknown
Doppler factor
Unknown
Orbital elements
Apogee altitude
233.267 km
Perigee altitude
232.045 km
Semi-major axis
6,610.793 km
Eccentricity
0.00009
Inclination
53.1527°
RAAN
201.3101°
Arg. of periapsis
291.8329°
True anomaly
68.27085°
Mean anomaly
68.261°
Eccentric anomaly
68.26592°
Mean motion
4.03797 °/min
Orbital period
89.15 mins
BSTAR
0.0066206
Loading maneuver chart data...
Computing Atmospheric mass density...
Loading historical data...
Loading historical data...
Loading historical data...
Loading historical data...
Loading historical data...
Loading historical data...
Loading historical data...

Documentation

Showing up to 5 results
|